This is the latest recevied weather packets stored in our database for station/object N3AVN. If no packets are shown the sender has not sent any weather packets the latest 10 day(s).
| Time | Temp. | Humidity | Pressure | Rain* | Wind** | Luminosity | Snow |
|---|---|---|---|---|---|---|---|
| 1777460681 | 7.22° C | 80% | 1016.3 hPa | 0 mm | - | 28 W/m² | - |
| 1777460377 | 7.22° C | 80% | 1016.4 hPa | 0 mm | - | 27 W/m² | - |
| 1777460073 | 7.22° C | 80% | 1016.2 hPa | 0 mm | - | 27 W/m² | - |
| 1777459771 | 7.22° C | 80% | 1016.4 hPa | 0 mm | - | 28 W/m² | - |
| 1777459467 | 7.22° C | 79% | 1016.3 hPa | 0 mm | - | 22 W/m² | - |
| 1777459165 | 7.22° C | 79% | 1016.1 hPa | 0 mm | - | 18 W/m² | - |
| 1777458862 | 7.22° C | 79% | 1016.3 hPa | 0 mm | - | 16 W/m² | - |
| 1777458558 | 7.22° C | 80% | 1016.2 hPa | 0 mm | - | 12 W/m² | - |
| 1777458255 | 7.22° C | 80% | 1016.3 hPa | 0 mm | - | 10 W/m² | - |
| 1777457950 | 7.22° C | 80% | 1016.5 hPa | 0 mm | - | 7 W/m² | - |
| 1777457648 | 7.22° C | 80% | 1016.3 hPa | 0 mm | - | 6 W/m² | - |
| 1777457346 | 7.22° C | 81% | 1016.5 hPa | 0 mm | - | 5 W/m² | - |
| 1777457042 | 7.22° C | 80% | 1016.2 hPa | 0 mm | - | 2 W/m² | - |
| 1777456738 | 7.22° C | 79% | 1016.3 hPa | 0 mm | - | 1 W/m² | - |
| 1777456436 | 7.22° C | 79% | 1016.3 hPa | 0 mm | - | 0 W/m² | - |
| 1777456134 | 7.22° C | 79% | 1016.1 hPa | 0 mm | - | 0 W/m² | - |
| 1777455830 | 7.22° C | 78% | 1016.2 hPa | 0 mm | - | 0 W/m² | - |
| 1777455527 | 7.22° C | 78% | 1016 hPa | 0 mm | - | 0 W/m² | - |
| 1777455224 | 7.22° C | 79% | 1016.1 hPa | 0 mm | - | 0 W/m² | - |
| 1777454920 | 6.67° C | 79% | 1016.5 hPa | 0 mm | - | 0 W/m² | - |
| 1777454617 | 6.67° C | 79% | 1016.3 hPa | 0 mm | - | 0 W/m² | - |
| 1777454313 | 6.67° C | 79% | 1016.2 hPa | 0 mm | - | 0 W/m² | - |
| 1777454010 | 6.67° C | 80% | 1016.1 hPa | 0 mm | - | 0 W/m² | - |
| 1777453708 | 6.67° C | 80% | 1016 hPa | 0 mm | - | 0 W/m² | - |
| 1777453405 | 6.67° C | 79% | 1016.1 hPa | 0 mm | - | 0 W/m² | - |
* Rain latest hour (hover to see other rain measurements)
** Current wind speed in m/s (hover to see current wind gust speed)